IRIDIUM 106 1 41917U 17003A 26105.44335905 .00000036 00000+0 56665-5 0 9991 2 41917 86.3927 114.7946 0002688 91.8241 268.3263 14.34217466484217 IRIDIUM 103 1 41918U 17003B 26105.50044149 .00000057 00000+0 13189-4 0 9992 2 41918 86.3926 114.6706 0002139 97.7862 262.3576 14.34217684484241 IRIDIUM 109 1 41919U 17003C 26105.50678549 .00000032 00000+0 42064-5 0 9998 2 41919 86.3928 114.7264 0002259 92.4861 267.6593 14.34217667484213 IRIDIUM 102 1 41920U 17003D 26105.47507269 -.00000013 00000+0 -11829-4 0 9991 2 41920 86.3929 114.6645 0002207 89.6540 270.4908 14.34217072484293 IRIDIUM 105 1 41921U 17003E 26105.43619855 .00000117 00000+0 34661-4 0 9995 2 41921 86.3925 83.1079 0002256 88.8061 271.3394 14.34398638486147 IRIDIUM 104 1 41922U 17003F 26105.55752437 -.00000003 00000+0 -81022-5 0 9993 2 41922 86.3930 114.6716 0001933 93.5545 266.5872 14.34217622484297 IRIDIUM 114 1 41923U 17003G 26105.49410002 .00000057 00000+0 13319-4 0 9996 2 41923 86.3927 114.6816 0002142 94.6904 265.4537 14.34217862484268 IRIDIUM 108 1 41924U 17003H 26105.38285172 .00000134 00000+0 40794-4 0 9996 2 41924 86.3921 83.0218 0002310 84.8090 275.3369 14.34216957486104 IRIDIUM 112 1 41925U 17003J 26105.55118351 .00000040 00000+0 71394-5 0 9997 2 41925 86.3923 114.5025 0002151 92.1304 268.0138 14.34217721484297 IRIDIUM 111 1 41926U 17003K 26105.46873001 .00000001 00000+0 -66346-5 0 9997 2 41926 86.3927 114.6063 0002153 93.2925 266.8517 14.34217376484268 IRIDIUM 113 1 42803U 17039A 26105.58823080 -.00000012 00000+0 -11342-4 0 9994 2 42803 86.4003 348.3484 0001788 86.0637 274.0764 14.34217590462219 IRIDIUM 123 1 42804U 17039B 26105.49017341 .00000021 00000+0 51032-6 0 9990 2 42804 86.4013 19.8335 0002178 88.9531 271.1915 14.34217700460963 IRIDIUM 120 1 42805U 17039C 26105.58188991 .00000026 00000+0 21452-5 0 9998 2 42805 86.3997 348.1422 0002300 83.8720 276.2738 14.34217517462204 IRIDIUM 115 1 42806U 17039D 26105.16617713 .00000209 00000+0 56097-4 0 9997 2 42806 86.4535 348.4360 0002439 90.4836 269.6644 14.43280035465179 IRIDIUM 118 1 42807U 17039E 26105.52188844 .00000160 00000+0 50208-4 0 9990 2 42807 86.4018 19.8186 0002141 85.3569 274.7872 14.34218382460965 IRIDIUM 117 1 42808U 17039F 26105.47114557 .00000081 00000+0 21704-4 0 9996 2 42808 86.4020 19.7982 0002259 89.0173 271.1281 14.34218198460986 IRIDIUM 126 1 42809U 17039G 26105.49651461 -.00000015 00000+0 -12383-4 0 9991 2 42809 86.4014 19.8376 0001998 87.9042 272.2382 14.34216707460965 IRIDIUM 124 1 42810U 17039H 26105.51606548 .00000227 00000+0 61526-4 0 9998 2 42810 86.4470 316.5838 0002242 89.3169 270.8289 14.43292840466072 IRIDIUM 128 1 42811U 17039J 26105.55702306 .00000016 00000+0 -15128-5 0 9997 2 42811 86.3974 51.3222 0002446 84.9292 275.2183 14.34217685461000 IRIDIUM 121 1 42812U 17039K 26105.51556019 .00000164 00000+0 51353-4 0 9994 2 42812 86.4018 19.8569 0002286 83.4329 276.7127 14.34215099460843 IRIDIUM 133 1 42955U 17061A 26105.58873341 .00000073 00000+0 18969-4 0 9999 2 42955 86.3977 51.4253 0002260 86.6229 273.5226 14.34218543445803 IRIDIUM 100 1 42956U 17061B 26105.58239302 .00000033 00000+0 45866-5 0 9996 2 42956 86.3972 51.3479 0002309 87.3142 272.8318 14.34217190445805 IRIDIUM 122 1 42957U 17061C 26105.55068013 .00000158 00000+0 49263-4 0 9995 2 42957 86.3970 51.3611 0002270 87.9520 272.1936 14.34217928445803 IRIDIUM 129 1 42958U 17061D 26105.36674594 .00000150 00000+0 46411-4 0 9996 2 42958 86.3974 51.5044 0001964 82.5356 277.6063 14.34218229445791 IRIDIUM 119 1 42959U 17061E 26105.26526303 -.00000019 00000+0 -13737-4 0 9991 2 42959 86.3972 51.5426 0002040 88.3044 271.8386 14.34217187445794 IRIDIUM 107 1 42960U 17061F 26105.56337494 .00000155 00000+0 48259-4 0 9993 2 42960 86.3976 51.4387 0002388 92.1772 267.9698 14.34219586445844 IRIDIUM 132 1 42961U 17061G 26105.56970689 .00000113 00000+0 33197-4 0 9992 2 42961 86.3974 51.4158 0002295 87.3845 272.7614 14.34217055445844 IRIDIUM 136 1 42962U 17061H 26105.60142128 .00000117 00000+0 34864-4 0 9993 2 42962 86.3978 51.4090 0002243 88.6786 271.4667 14.34217281445862 IRIDIUM 139 1 42963U 17061J 26105.60776405 .00000115 00000+0 34012-4 0 9998 2 42963 86.3975 51.4674 0002370 86.5581 273.5886 14.34217475445871 IRIDIUM 125 1 42964U 17061K 26105.59507756 -.00000031 00000+0 -17975-4 0 9996 2 42964 86.3975 51.5329 0001974 100.4804 259.6615 14.34217390445885 IRIDIUM 135 1 43070U 17083A 26105.42966683 .00000135 00000+0 41178-4 0 9994 2 43070 86.4005 348.2559 0002186 84.9556 275.1889 14.34218102435153 IRIDIUM 138 1 43071U 17083B 26105.59457372 .00000000 00000+0 -71195-5 0 9998 2 43071 86.4018 347.8732 0001831 89.5874 270.5531 14.34217677435166 IRIDIUM 116 1 43072U 17083C 26105.42332504 .00000063 00000+0 15368-4 0 9997 2 43072 86.4001 348.2453 0002445 83.5435 276.6040 14.34217417435178 IRIDIUM 130 1 43073U 17083D 26105.60091717 .00000110 00000+0 32217-4 0 9991 2 43073 86.4010 348.4401 0002409 88.7565 271.3907 14.34217534435146 IRIDIUM 151 1 43074U 17083E 26105.64531496 .00000119 00000+0 35348-4 0 9996 2 43074 86.4004 348.2089 0002226 83.7285 276.4164 14.34217885435174 IRIDIUM 134 1 43075U 17083F 26105.61360187 .00000019 00000+0 -23393-6 0 9990 2 43075 86.4002 348.2289 0002157 87.5895 272.5548 14.34217724435138 IRIDIUM 137 1 43076U 17083G 26105.41698465 .00000161 00000+0 50536-4 0 9996 2 43076 86.4008 348.4030 0002420 74.3911 285.7552 14.34218239435174 IRIDIUM 141 1 43077U 17083H 26105.61994387 -.00000011 00000+0 -11073-4 0 9990 2 43077 86.3998 348.1521 0001964 84.5790 275.5629 14.34217565435201 IRIDIUM 153 1 43078U 17083J 26105.64189057 .00000009 00000+0 -37570-5 0 9991 2 43078 86.3945 316.6401 0001863 93.0344 267.1065 14.34217828436315 IRIDIUM 131 1 43079U 17083K 26105.60725924 -.00000022 00000+0 -14843-4 0 9990 2 43079 86.4003 348.3390 0001970 83.6191 276.5229 14.34217391435135 IRIDIUM 144 1 43249U 18030A 26105.50869709 .00000157 00000+0 48846-4 0 9998 2 43249 86.3945 316.6267 0002292 86.8258 273.3200 14.34218191421156 IRIDIUM 149 1 43250U 18030B 26105.09642859 .00000409 00000+0 13898-3 0 9997 2 43250 86.3945 316.7670 0002059 87.3719 272.7713 14.34218232421110 IRIDIUM 157 1 43251U 18030C 26105.60383599 .00000161 00000+0 50346-4 0 9993 2 43251 86.3951 316.6063 0002162 89.2486 270.8957 14.34217877421168 IRIDIUM 140 1 43252U 18030D 26105.13448395 .00000009 00000+0 -36912-5 0 9994 2 43252 86.3946 316.8152 0002083 89.2637 270.8798 14.34217640421154 IRIDIUM 145 1 43253U 18030E 26105.61018016 .00000169 00000+0 53368-4 0 9990 2 43253 86.3947 316.5889 0002459 85.8348 274.3128 14.34218627421150 IRIDIUM 146 1 43254U 18030F 26105.31207606 .00000084 00000+0 22949-4 0 9990 2 43254 86.3946 316.7260 0002267 87.0875 273.0580 14.34218447421126 IRIDIUM 148 1 43255U 18030G 26105.48966701 .00000171 00000+0 54014-4 0 9992 2 43255 86.3949 316.6940 0002138 84.7462 275.3978 14.34215074421182 IRIDIUM 142 1 43256U 18030H 26105.52771900 .00000157 00000+0 49046-4 0 9996 2 43256 86.3945 316.5691 0002359 87.4320 272.7146 14.34214783421150 IRIDIUM 150 1 43257U 18030J 26105.56578080 .00000187 00000+0 59771-4 0 9994 2 43257 86.3948 316.6676 0002212 88.6677 271.4773 14.34217692421181 IRIDIUM 143 1 43258U 18030K 26105.61652218 .00000090 00000+0 25080-4 0 9996 2 43258 86.3952 316.7366 0002287 87.1856 272.9602 14.34217299421123 IRIDIUM 161 1 43478U 18047C 26105.56324445 .00000122 00000+0 30215-4 0 9992 2 43478 86.4446 114.6634 0002030 87.2357 272.9076 14.43280961416105 IRIDIUM 152 1 43479U 18047D 26105.37993338 .00000033 00000+0 45952-5 0 9991 2 43479 86.3921 114.6006 0002152 92.2429 267.9013 14.34217586413483 IRIDIUM 147 1 43480U 18047E 26105.38627547 .00000004 00000+0 -57123-5 0 9992 2 43480 86.3926 114.6021 0002267 89.7726 270.3730 14.34217615413482 IRIDIUM 110 1 43481U 18047F 26105.25308035 .00000021 00000+0 37829-6 0 9997 2 43481 86.3929 114.7479 0001796 89.9648 270.1754 14.34217615413456 IRIDIUM 162 1 43482U 18047G 26105.55694363 .00000028 00000+0 22554-5 0 9998 2 43482 86.4445 114.5578 0002321 93.9603 266.1864 14.43278479416095 IRIDIUM 160 1 43569U 18061A 26105.47799169 .00000018 00000+0 -68464-6 0 9992 2 43569 86.3923 83.0168 0002159 85.2242 274.9201 14.34217526404385 IRIDIUM 166 1 43570U 18061B 26105.43359811 .00000075 00000+0 19885-4 0 9999 2 43570 86.3922 82.9866 0002409 87.7682 272.3790 14.34213553404406 IRIDIUM 158 1 43571U 18061C 26105.47164895 .00000278 00000+0 92112-4 0 9999 2 43571 86.3927 82.9809 0002215 91.3616 268.7833 14.34217475404372 IRIDIUM 165 1 43572U 18061D 26105.42724914 .00000166 00000+0 52356-4 0 9991 2 43572 86.3924 83.0444 0002400 86.7627 273.3844 14.34216441404391 IRIDIUM 155 1 43573U 18061E 26105.38919549 .00000041 00000+0 75005-5 0 9996 2 43573 86.3921 82.9325 0002330 91.2212 268.9251 14.34217739404357 IRIDIUM 154 1 43574U 18061F 26105.43993719 .00000217 00000+0 70574-4 0 9994 2 43574 86.3923 83.0418 0002426 85.8676 274.2797 14.34217854404414 IRIDIUM 163 1 43575U 18061G 26105.49066800 .00000138 00000+0 42124-4 0 9995 2 43575 86.3922 82.9378 0002175 89.9494 270.1951 14.34214644404399 IRIDIUM 156 1 43576U 18061H 26105.46530553 .00000042 00000+0 80420-5 0 9990 2 43576 86.3923 82.9557 0002370 90.8000 269.3468 14.34217683404389 IRIDIUM 164 1 43577U 18061J 26105.37651048 .00000028 00000+0 29774-5 0 9993 2 43577 86.3923 83.0322 0002345 84.0426 276.1037 14.34217505404416 IRIDIUM 159 1 43578U 18061K 26105.48433397 .00000089 00000+0 24621-4 0 9993 2 43578 86.3921 82.9252 0002163 86.7452 273.3991 14.34216244404395 IRIDIUM 180 1 43922U 19002A 26105.48383071 .00000014 00000+0 -19779-5 0 9993 2 43922 86.4020 19.7972 0002096 82.9084 277.2350 14.34217603380003 IRIDIUM 176 1 43923U 19002B 26105.49276454 .00000476 00000+0 71514-4 0 9996 2 43923 86.6139 19.7456 0002605 83.6579 276.4935 14.72255502390022 IRIDIUM 168 1 43924U 19002C 26105.26818267 .00000059 00000+0 13904-4 0 9992 2 43924 86.4020 19.9626 0002159 86.2730 273.8712 14.34217650379956 IRIDIUM 173 1 43925U 19002D 26105.11595956 .00000149 00000+0 46278-4 0 9994 2 43925 86.4018 19.9176 0002130 88.0840 272.0600 14.34218653379912 IRIDIUM 169 1 43926U 19002E 26105.58250009 .00000176 00000+0 51015-4 0 9998 2 43926 86.4230 51.3540 0002544 100.4319 259.7166 14.38608436381225 IRIDIUM 172 1 43927U 19002F 26105.17938620 .00000028 00000+0 28528-5 0 9996 2 43927 86.4016 19.8987 0002144 82.5063 277.6377 14.34217620379939 IRIDIUM 175 1 43928U 19002G 26105.61453894 .00000216 00000+0 57876-4 0 9997 2 43928 86.4500 316.6962 0005332 77.8425 282.3373 14.43589167389950 IRIDIUM 171 1 43929U 19002H 26105.50920162 .00000137 00000+0 41764-4 0 9994 2 43929 86.4028 20.0603 0002390 85.2249 274.9219 14.34218116379972 IRIDIUM 170 1 43930U 19002J 26105.49894628 .00000450 00000+0 67524-4 0 9991 2 43930 86.6137 19.7458 0002353 83.3843 276.7642 14.72252150390036 IRIDIUM 167 1 43931U 19002K 26105.50285889 .00000071 00000+0 18324-4 0 9990 2 43931 86.4018 19.7857 0002541 87.5047 272.6440 14.34217933379976 IRIDIUM 181 1 56726U 23068S 26105.43268208 .00000154 00000+0 39853-4 0 9993 2 56726 86.4461 83.0226 0002306 79.8374 280.3087 14.43311550153382 IRIDIUM 177 1 56727U 23068T 26105.45316631 .00000592 00000+0 74473-4 0 9993 2 56727 86.2009 358.5843 0002164 89.6251 270.5218 14.80217824157087 IRIDIUM 174 1 56728U 23068U 26105.28268499 .00000487 00000+0 73276-4 0 9996 2 56728 86.6147 19.9773 0002142 85.5958 274.5503 14.72260947156760 IRIDIUM 178 1 56729U 23068V 26105.37460633 .00000634 00000+0 79937-4 0 9995 2 56729 86.6546 51.5974 0002705 81.9722 278.1807 14.80234724157078 IRIDIUM 179 1 56730U 23068W 26105.36922666 .00000642 00000+0 80985-4 0 9999 2 56730 86.6768 60.3954 0002961 88.5407 271.6154 14.80234559157078